    Orbital elements:
    1998 KU2
    Epoch 2000 Feb. 26.0 TT = JDT 2451600.5                 Williams
    M 158.22673              (2000.0)            P               Q
    n   0.29187457     Peri.  119.14498     +0.82579040     +0.56267839
    a   2.2508085      Node   206.66889     -0.54252111     +0.77401417
    e   0.5536826      Incl.    4.88903     -0.15408134     +0.29033617
    P   3.38           H   16.6           G   0.15           U   2
    Residuals in seconds of arc
    980422 704  0.3-  0.0     980614 046  0.4-  0.3+    981004 422  0.2+  0.2+
    980422 704  0.3+  0.4-    980615 670  0.7-  0.3-    981004 422  0.2+  0.4+
    980422 704  0.5-  1.4-    980615 670  0.8-  0.6+    981009 689  0.0   0.4-
    980422 704  0.8+  1.4-    980616 712  0.4-  0.1+    981009 046  0.4+  0.0
    980422 704 (2.1-  0.5-)   980616 712  1.2-  0.3+    981009 046  0.2+  0.0
    980501 704  0.4+  0.2-    980616 712  0.1+  1.9-    981009 046  0.2+  0.0
    980501 704  0.6-  0.9+    980616 712  0.3-  1.3-    981009 046  0.1+  0.1+
    980501 704  1.1-  0.5-    980616 704  1.0-  0.1-    981009 046  0.3+  0.1+
    980501 704  0.1-  1.9+    980616 704  0.4-  0.5+    981009 151  0.1+  0.0
    980505 699  0.7+  0.2+    980616 704  0.5-  0.1+    981009 151  0.1-  0.1-
    980505 699  0.5+  1.7-    980616 704  1.6-  0.4-    981009 151  0.0   0.1+
    980505 699  0.6-  0.1-    980616 704  1.7-  1.4-    981011 629  0.4+  0.7-
    980522 704  0.9+  0.2-    980617 712 (1.0-  2.5-)   981011 629  0.4-  0.4-
    980522 704  0.9+  1.0+    980617 712 (2.2-  0.5+)   981011 629  0.1+  0.6-
    980522 704  0.1+  0.0     980617 712  0.9-  0.4-    981011 629  0.8+  0.9-
    980522 704  0.0   0.1+    980617 712 (0.6+  2.4+)   981011 629  0.9-  0.0
    980522 704  0.3+  0.4-    980617 360  0.2-  0.1-    981012 704  0.9-  0.1-
    980523 704  0.1+  0.1+    980617 360  0.1-  0.1+    981012 704  0.3-  0.7+
    980523 704  0.0   0.5+    980617 360  0.2-  0.1+    981012 704  0.5-  0.3+
    980523 704  0.7+  0.1+    980617 402  0.0   0.1+    981012 704  0.7-  1.2+
    980523 704  0.4+  0.8+    980617 402  0.2-  0.2+    981012 704  0.9-  0.0
    980523 704  0.1+  0.8-    980617 402  0.1+  0.2+    981013 750  0.5+  0.5+
    980523 670  0.3+  0.5+    980618 712  0.5-  0.0     981013 750  0.6+  0.4+
    980523 670  0.0   0.0     980618 712  0.4+  0.2+    981013 046  0.2+  0.2+
    980523 670  0.7+  0.5+    980618 712  0.4-  0.0     981013 046  0.3+  0.1+
    980523 426  0.2-  0.0     980619 587  0.1-  0.4-    981013 046  0.2+  0.1+
    980523 426  0.2+  0.0     980619 587  0.8-  0.0     981013 049 (2.6-  0.0 )
    980523 426  0.3-  0.5+    980621 046  0.4+  0.8+    981013 049 (2.5-  0.4-)
    980523 426  0.0   0.0     980621 046  0.3-  0.7+    981013 049 (2.1-  0.2-)
    980524 816  0.1-  0.3+    980621 046  0.4+  0.4+    981015 422  0.1-  0.1-
    980524 816  0.0   0.4+    980621 046  1.5+  0.6+    981015 422  0.0   0.1+
    980524 816  0.2-  0.3+    980621 046  1.3+  0.5+    981015 422  0.1-  0.0
    980524 816  0.1-  0.2+    980622 860  0.0   0.1+    981015 143  0.9-  0.1+
    980524 824  0.3+  0.3+    980622 860  0.1+  0.0     981015 143  0.3+  0.2+
    980524 824  1.0-  0.1+    980622 860  0.0   0.3+    981015 143  0.7-  0.1-
    980524 824  0.4+  0.0     980622 046  0.3-  0.1+    981015 143  0.3-  0.1+
    980524 704  0.1-  0.0     980622 046  0.4-  0.2+    981016 049 (2.1-  0.0 )
    980524 704  0.0   0.2+    980622 046  0.3-  0.7+    981016 049 (2.3-  0.0 )
    980524 704  0.5+  0.2-    980623 712  0.3-  0.1-    981016 049  1.2-  0.0
    980524 704  0.4+  0.6+    980623 712  0.2-  0.5-    981016 151  0.9+  0.1-
    980524 704  0.2+  0.1+    980623 712  0.1-  0.0     981016 046  1.3+  0.0
    980524 704  0.5+  0.7+    980623 712  0.3-  0.4-    981016 046  1.3+  0.1+
    980524 704  0.8+  0.3+    980623 712  0.4-  0.4-    981016 046  1.2+  0.2+
    980524 704  0.3+  0.4+    980623 860  0.3+  0.3+    981016 046  1.2+  0.1+
    980524 704  0.4+  0.0     980623 860  0.5+  0.3-    981016 151  0.9+  0.2-
    980524 704  0.9+  0.6-    980623 860  0.2+  0.0     981017 670  0.8+  0.4-
    980524 704  0.0   0.6+    980624 712  0.1+  0.2+    981017 670  0.9+  0.1-
    980524 704  0.4+  0.0     980624 712  0.4+  0.3+    981017 670  1.0+  0.1-
    980524 704  0.4-  0.1-    980624 712  0.2-  0.2+    981017 952  0.9-  0.1-
    980524 704  0.2-  1.0+    980624 712  0.1+  0.4+    981017 952  0.7-  0.2+
    980524 704  0.5+  0.4+    980629 046  0.6-  1.0-    981017 952  0.6-  0.6+
    980524 670  0.9+  0.5+    980629 046  0.3-  1.2-    981019 635  0.4-  0.5-
    980524 670  0.4+  0.2-    980629 046  0.2-  0.5-    981019 635  0.8-  0.3+
    980524 670  0.7+  0.5-    980630 587  0.2+  0.5-    981019 635  0.6-  0.3-
    980524 670  1.1+  0.5-    980630 587  0.1-  0.1-    981020 825  0.0   0.8-
    980524 426  0.1-  0.0     980710 670  0.5-  0.1-    981020 825  1.3+  0.2+
    980524 426  0.1-  0.3+    980710 670  0.3+  1.2-    981020 635  0.3-  0.3+
    980524 422  0.0   0.6+    980714 046 (0.1-  2.2-)   981020 635  1.0-  0.1+
    980524 422  0.2+  0.6+    980714 046  0.3-  1.4-    981021 825  0.0   0.7+
    980524 426  0.3-  0.4+    980714 046  0.7-  1.2-    981021 825 (2.1-  0.1+)
    980524 422  0.0   0.6+    980717 587  0.6-  0.5-    981021 360  0.0   0.2-
    980524 426  0.1+  0.2+    980717 587  0.8-  1.0-    981021 360  0.2-  0.5-
    980525 816  0.2-  0.6+    980717 118  0.1-  0.5-    981021 360  0.4-  0.2-
    980525 816  0.1+  0.2+    980717 587  0.4-  0.9-    981021 118  0.1-  0.3-
    980525 824  0.3+  0.6+    980717 118  0.7-  0.5-    981021 118  0.4-  0.3-
    980525 816  0.6+  0.1+    980719 046  0.8-  0.9-    981021 825  0.1+  0.2-
    980525 824  0.0   0.4+    980719 046  0.8-  0.7-    981021 825  0.1+  0.7-
    980525 816  0.3+  0.4+    980719 046  0.7-  0.5-    981021 825  0.3+  0.1-
    980525 824  0.3-  0.8+    980722 402  0.5-  0.5-    981022 151  0.3-  0.4-
    980525 704  0.2+  0.0     980722 402  0.6-  0.5-    981022 151  0.0   0.5-
    980525 704  0.1-  1.0+    980722 402  0.6-  0.4-    981022 151  0.1+  0.2-
    980525 704  0.4-  0.5+    980722 587  0.8-  0.7-    981025 143  0.0   0.0
    980525 704  1.6+  0.3-    980722 587  0.8-  0.3+    981025 143  1.0-  0.0
    980525 699  0.3+  0.2+    980806 557  0.3-  0.6-    981025 143  0.9-  0.3-
    980525 699  0.3+  1.0+    980806 557  0.0   0.6-    981025 143  0.0   0.1-
    980525 699  0.2+  0.5+    980806 557  0.2+  0.5-    981025 143  1.2-  0.0
    980525 426  0.3-  0.3+    980806 557  0.6+  0.6-    981028 635  0.5+  1.1+
    980525 426  0.5-  0.2+    980807 046  0.8-  1.1-    981028 635  0.3-  0.2+
    980525 426  0.3-  0.1+    980807 046  1.3+  0.9-    981028 635  0.8-  0.2+
    980525 422  0.2+  0.3+    980807 046  0.9+  0.1-    981028 132  0.8-  0.4+
    980525 422  0.2+  0.4+    980807 046  0.7-  0.1+    981028 132  1.0+  1.1+
    980525 422  0.5+  0.4+    980810 422 (1.0+  2.1-)   981028 132  0.2-  0.8+
    980526 700  0.3-  0.9+    980810 422 (1.0+  2.1-)   981105 118  0.6+  0.5-
    980526 700  0.1+  0.6+    980810 422 (0.9+  2.3-)   981105 118  0.5+  0.5-
    980526 422  0.0   0.3+    980810 046  0.8+  0.8-    981106 635  0.6+  0.4-
    980526 422  0.2+  0.1+    980810 046  0.5+  0.9-    981106 635  0.6+  1.0-
    980526 360  0.2-  0.6+    980810 046  0.4+  0.5-    981106 635  0.1+  0.1+
    980526 360  0.0   0.3+    980814 118  0.1-  0.1-    981108 118  0.1-  0.1-
    980526 360  0.0   0.4+    980814 118  0.3-  0.1-    981108 118  0.3-  0.2+
    980526 046  0.0   0.2+    980819 118  0.6+  0.7-    981109 635  0.3+  0.6+
    980526 046  0.0   0.3+    980819 118  0.6+  0.9-    981109 635  0.5-  0.1+
    980526 046  0.1-  0.3+    980820 587  0.6+  0.5-    981109 635  0.2-  0.7-
    980526 046  0.1-  0.3+    980824 711  0.7+  0.3-    981109 635  0.2+  0.1+
    980527 700  0.1+  0.2+    980824 711  0.7+  0.2-    981110 143  0.0   0.4-
    980527 700  0.5-  0.2+    980825 711  0.4+  0.4-    981110 143  0.5-  0.3-
    980527 422  0.1+  0.0     980825 711  0.5+  0.4-    981110 143  0.7-  0.7-
    980527 422  0.0   0.0     980826 118  0.7+  0.8-    981111 118  1.6-  1.2+
    980527 422  0.1-  0.0     980829 670  0.3-  0.3+    981111 118 (0.4-  2.2+)
    980527 402  0.4+  0.2+    980829 670  1.2+  0.2+    981111 118  0.5-  1.6+
    980527 402  0.3+  0.2+    980829 670  0.4+  0.4-    981112 825  0.5+  0.5+
    980527 402  0.5+  0.2+    980829 658  1.0-  1.0-    981112 825  0.3-  0.2+
    980527 557  0.1-  0.4+    980829 658  1.3-  0.8-    981112 825  0.8+  0.2+
    980527 557  0.2-  0.1+    980829 658  1.6-  0.8-    981116 825  0.6+  1.6-
    980527 557  0.5+  0.3+    980907 046  0.3+  0.1-    981116 825  0.5-  0.1+
    980528 670  1.0-  1.0+    980907 046  0.1+  0.4+    981116 825  0.2-  0.4+
    980528 670  0.3+  0.8-    980907 046  0.5+  0.6+    981118 143  0.4-  0.2+
    980528 670  0.0   0.4-    980907 046  0.4-  0.1+    981118 143  0.2+  0.0
    980530 422  0.5+  0.2+    980909 360  0.7+  0.2+    981118 143  0.1+  0.3-
    980530 422  0.0   0.7+    980909 360  0.4+  0.3+    981119 825  0.1+  0.1-
    980530 422  0.0   0.8+    980909 360  0.1+  0.2+    981119 825  0.2-  0.3-
    980531 670  0.2+  0.5+    980919 670  0.4+  0.5+    981119 897  0.2+  0.0
    980531 670  1.3+  0.5-    980919 670  0.3+  0.8+    981119 897  0.2+  0.0
    980531 670  1.0-  0.6+    980919 670  0.1-  0.7+    981119 897  0.0   0.4-
    980601 046  0.3+  0.2-    980919 670  0.0   1.0+    981119 143  0.6+  0.2-
    980601 046  0.3+  0.0     980919 426  0.2+  0.4+    981119 143 (0.9+  3.2+)
    980601 046  0.2+  0.1-    980919 426  0.2+  0.5+    981119 143  0.9-  1.1+
    980602 046  0.3+  0.0     980919 426  0.3+  0.5+    981125 699  0.8+  1.3-
    980602 046  0.4+  0.0     980919 426  0.2+  0.4+    981125 699  0.1-  0.5+
    980602 046  0.4+  0.1+    980919 118  0.3-  0.9+    981125 699  1.7-  0.8+
    980602 118  0.4+  0.0     980919 118  0.1-  1.2+    981126 402  0.0   0.3+
    980602 118  0.4+  0.0     980919 118  0.2+  0.8+    981126 402  0.1+  0.4+
    980603 046  0.0   0.2+    980922 118  0.3-  0.2+    981126 402  0.1+  0.3+
    980603 046  0.2+  0.3+    980922 118  0.1-  0.2+    981208 704  1.4+  0.6-
    980603 046  0.2+  0.0     980923 658  0.9-  0.1+    981208 704  0.6+  0.3+
    980604 046  0.2+  0.2+    980923 658  1.2-  0.1+    981208 704 (2.6+  1.4-)
    980604 046  0.2+  0.2+    980923 658  1.0-  0.1+    981208 704  0.4-  1.5-
    980604 046  0.1-  0.1+    980924 658  0.5-  0.7+    981208 704 (1.6-  3.0+)
    980604 557  0.8+  0.5+    980924 658  0.2-  0.4+    981215 046  0.3+  0.0
    980604 557  0.4-  0.1-    980924 658  0.1-  0.6+    981215 046  0.2-  0.3+
    980604 557  0.4-  0.1+    980924 118  0.0   0.0     981215 046  0.1-  0.3-
    980609 046  0.0   0.0     980924 118  0.5+  0.0     000210 413  0.4+  0.3+
    980609 046  0.1+  0.4-    981002 757 (2.3+  0.2-)   000210 413  0.2+  0.0
    980609 046  0.5+  0.1+    981002 757  1.0+  0.6-    000210 413  0.1-  0.2+
    980614 046  0.4-  0.2+    981002 689  0.3+  0.1+    000226 413  0.2-  0.2+
    980614 046  0.6-  0.2+    981004 422  0.2+  0.2+    000226 413  0.1-  0.0
    
